Weather History for KOFF - September, 2013

Change the Weather History Date:

Monday, September 16, 2013

  Actual Average Record
Temperature  
Mean Temperature 61 °F -  
Max Temperature 67 °F 74 °F 86 °F (1997)
Min Temperature 55 °F 54 °F 40 °F (2014)
Degree Days  
Heating Degree Days 4    
Growing Degree Days 11 (Base 50)    
Moisture  
Dew Point 54 °F    
Average Humidity 77    
Maximum Humidity 95    
Minimum Humidity 64    
Precipitation  
Precipitation 0.00 in - - ()
Sea Level Pressure  
Sea Level Pressure 30.25 in    
Wind  
Wind Speed 9 mph (East)    
Max Wind Speed 16 mph    
Max Gust Speed 20 mph    
Visibility 10 miles    
Events Rain    
Averages and records for this station are not official NWS values.
T = Trace of Precipitation, MM = Missing Value Source: NWS Daily Summary

Daily Weather History Graph

Daily Weather History Graph

Search for Another Location

Airport or City:

Trip Planner

Search our weather history database for the weather conditions in past years. The results will help you decide how hot, cold, wet, or windy it might be!

Date:

Astronomy

Sep. 16, 2013 Rise Set
Actual Time 7:05 AM CDT 7:30 PM CDT
Civil Twilight 6:37 AM CDT 7:58 PM CDT
Nautical Twilight 6:05 AM CDT 8:30 PM CDT
Astronomical Twilight 5:31 AM CDT 9:03 PM CDT
Moon 5:41 PM CDT (9/16) 3:51 AM CDT (9/16)
Length of Visible Light 13h 20m
Length of Day
12h 25m
Waxing Gibbous, 90% of the Moon is Illuminated
Sep 16
Waxing Gibbous
Sep 19
Full
Sep 26
Last Quarter
Oct 4
New
Oct 11
First Quarter

Hourly Weather History & Observations

Time (CDT) Temp. Dew Point Humidity Pressure Visibility Wind Dir Wind Speed Gust Speed Precip Events Conditions
12:58 AM 62.4 °F 52.9 °F 71% 30.26 in 10.0 mi NE 8.1 mph - N/A   Overcast
1:58 AM 61.7 °F 52.3 °F 71% 30.25 in 10.0 mi NE 5.8 mph - N/A   Overcast
2:58 AM 61.0 °F 53.1 °F 75% 30.26 in 10.0 mi NE 4.6 mph - N/A   Overcast
3:58 AM 60.3 °F 52.3 °F 75% 30.26 in 10.0 mi NE 4.6 mph - N/A   Overcast
4:58 AM 55.9 °F 52.0 °F 87% 30.28 in 10.0 mi NE 5.8 mph - N/A   Clear
5:58 AM 55.8 °F 53.6 °F 92% 30.29 in 10.0 mi NNE 6.9 mph - N/A   Clear
6:58 AM 55.2 °F 53.8 °F 95% 30.30 in 10.0 mi NNE 8.1 mph - N/A   Clear
7:58 AM 55.6 °F 54.0 °F 94% 30.32 in 10.0 mi NE 8.1 mph - N/A   Clear
8:58 AM 58.6 °F 54.9 °F 87% 30.32 in 10.0 mi ENE 8.1 mph - N/A   Clear
9:58 AM 62.6 °F 53.6 °F 72% 30.33 in 10.0 mi East 12.7 mph - N/A   Mostly Cloudy
10:24 AM 62.6 °F 53.6 °F 72% 30.31 in 10.0 mi East 13.8 mph - N/A   Mostly Cloudy
10:58 AM 61.9 °F 53.4 °F 74% 30.34 in 10.0 mi East 12.7 mph - N/A   Overcast
11:58 AM 62.6 °F 53.6 °F 72% 30.34 in 10.0 mi East 9.2 mph - N/A   Overcast
12:58 PM 65.3 °F 53.6 °F 66% 30.32 in 10.0 mi ESE 16.1 mph - N/A   Mostly Cloudy
1:48 PM 66.2 °F 53.6 °F 64% 30.29 in 10.0 mi East 11.5 mph - N/A   Mostly Cloudy
1:58 PM 67.1 °F 54.7 °F 64% 30.28 in 10.0 mi East 12.7 mph 19.6 mph N/A   Scattered Clouds
2:58 PM 66.9 °F 54.7 °F 65% 30.27 in 10.0 mi East 10.4 mph 18.4 mph N/A   Partly Cloudy
3:58 PM 67.5 °F 55.0 °F 64% 30.25 in 10.0 mi East 12.7 mph - N/A   Mostly Cloudy
4:58 PM 65.1 °F 54.1 °F 68% 30.22 in 10.0 mi East 12.7 mph - N/A   Mostly Cloudy
5:58 PM 63.9 °F 53.8 °F 70% 30.22 in 10.0 mi East 13.8 mph - N/A   Overcast
6:09 PM 62.6 °F 53.6 °F 72% 30.21 in 10.0 mi East 15.0 mph 19.6 mph N/A   Light Drizzle
6:20 PM 62.6 °F 53.6 °F 72% 30.20 in 10.0 mi East 12.7 mph - N/A   Overcast
6:40 PM 62.6 °F 53.6 °F 72% 30.21 in 10.0 mi East 10.4 mph - N/A   Overcast
6:58 PM 62.1 °F 54.3 °F 76% 30.22 in 10.0 mi East 9.2 mph - 0.00 in   Overcast
7:13 PM 62.6 °F 53.6 °F 72% 30.21 in 10.0 mi East 6.9 mph - N/A   Mostly Cloudy
7:58 PM 61.3 °F 53.4 °F 75% 30.22 in 10.0 mi ESE 10.4 mph - N/A   Overcast
8:23 PM 60.8 °F 53.6 °F 77% 30.21 in 10.0 mi ESE 5.8 mph - N/A   Overcast
8:41 PM 60.8 °F 53.6 °F 77% 30.21 in 10.0 mi East 6.9 mph - N/A Rain Light Rain
8:56 PM 60.8 °F 53.6 °F 77% 30.21 in 10.0 mi East 8.1 mph - N/A   Overcast
8:58 PM 60.8 °F 53.6 °F 77% 30.22 in 10.0 mi East 6.9 mph - 0.00 in   Overcast
9:56 PM 60.8 °F 53.6 °F 77% 30.22 in 10.0 mi East 6.9 mph - N/A   Light Drizzle
9:58 PM 60.8 °F 53.6 °F 77% 30.23 in 10.0 mi East 5.8 mph - N/A   Light Drizzle
10:27 PM 60.8 °F 55.4 °F 82% 30.22 in 10.0 mi ESE 5.8 mph - N/A   Overcast
10:58 PM 60.1 °F 54.7 °F 82% 30.23 in 10.0 mi East 5.8 mph - 0.00 in   Overcast
11:12 PM 60.8 °F 55.4 °F 82% 30.21 in 10.0 mi East 8.1 mph - N/A Rain Light Rain
11:23 PM 59.0 °F 55.4 °F 88% 30.21 in 10.0 mi East 6.9 mph - N/A   Overcast
11:29 PM 59.0 °F 55.4 °F 88% 30.21 in 10.0 mi East 6.9 mph - N/A   Light Drizzle
11:50 PM 59.0 °F 55.4 °F 88% 30.21 in 10.0 mi East 9.2 mph - N/A   Overcast
11:58 PM 59.4 °F 55.8 °F 88% 30.22 in 10.0 mi East 8.1 mph - 0.00 in   Overcast